E1763 Weather Reports


time (UTC)temp
F
wind
direction
speed
knots
gust
knots
rain 1hr
in
rain 24hr
in
rain mn
in
humidity
%
barometer
mb
20260509211551 65 252 0.0 0.0 0.00 0.00 0.00 77 1011.4
20260509210052 67 216 0.0 0.0 0.00 0.00 0.00 75 1011.4
20260509204548 67 191 0.0 0.0 0.00 0.00 0.00 75 1011.3
20260509203058 66 223 0.0 0.0 0.00 0.00 0.00 77 1011.3
20260509201544 66 286 0.0 0.0 0.00 0.00 0.00 77 1011.5
20260509200044 66 265 0.0 0.0 0.00 0.00 0.00 78 1011.5
20260509194544 66 176 0.0 0.0 0.00 0.00 0.00 78 1011.5
20260509193039 66 254 0.0 0.0 0.00 0.00 0.00 80 1011.7
20260509191553 65 201 0.0 0.0 0.00 0.00 0.00 80 1011.7
20260509190036 65 175 0.0 0.0 0.00 0.00 0.00 85 1011.8
20260509184543 63 234 0.0 0.0 0.00 0.00 0.00 88 1011.8
20260509183033 61 173 0.0 0.0 0.00 0.00 0.00 91 1011.9
20260509181523 59 232 0.0 0.0 0.00 0.00 0.00 92 1011.8
20260509180020 58 213 0.0 0.0 0.00 0.00 0.00 96 1011.9
20260509174522 56 202 0.0 0.0 0.00 0.00 0.00 97 1011.8
20260509173014 54 222 0.0 0.0 0.00 0.00 0.00 97 1011.9
20260509171513 54 202 0.0 0.0 0.00 0.00 0.00 97 1011.9
20260509170014 53 225 0.0 0.0 0.00 0.00 0.00 97 1012.0
20260509164509 52 171 0.0 0.0 0.00 0.00 0.00 97 1012.1
20260509163011 51 202 0.0 0.0 0.00 0.00 0.00 97 1012.1
20260509161505 51 194 0.0 0.0 0.00 0.00 0.00 97 1012.1
20260509160005 50 229 0.0 0.0 0.00 0.00 0.00 97 1012.1
20260509154503 50 195 0.0 0.0 0.00 0.00 0.00 97 1012.1
20260509153002 49 187 0.0 0.0 0.00 0.00 0.00 97 1012.0
20260509151601 49 213 0.0 0.0 0.00 0.00 0.00 96 1011.9
20260509150103 48 159 0.0 0.0 0.00 0.00 0.00 96 1011.9
20260509144600 48 220 0.0 0.0 0.00 0.00 0.00 97 1011.9
20260509143100 47 184 0.0 0.0 0.00 0.00 0.00 96 1011.9
20260509141558 47 86 0.0 0.0 0.00 0.00 0.00 96 1011.8
20260509134555 47 47 0.0 0.0 0.00 0.00 0.00 96 1011.4
20260509133055 47 320 0.0 0.0 0.00 0.00 0.00 96 1011.2
20260509131557 46 22 0.0 0.0 0.00 0.00 0.00 96 1011.1
20260509130105 46 22 0.0 0.0 0.00 0.00 0.00 96 1011.1
20260509124556 46 22 0.0 0.0 0.00 0.01 0.00 96 1011.0
20260509123053 47 22 0.0 0.0 0.00 0.01 0.00 96 1010.9
20260509121604 47 22 0.0 0.0 0.00 0.01 0.00 96 1011.0
20260509120049 47 22 0.0 0.0 0.00 0.01 0.00 96 1010.9
20260509114553 47 22 0.0 0.0 0.00 0.01 0.00 96 1010.9
20260509113055 48 22 0.0 0.0 0.00 0.01 0.00 96 1010.8
20260509111543 48 22 0.0 0.0 0.00 0.01 0.00 96 1010.9
20260509110042 48 22 0.0 0.0 0.00 0.01 0.00 96 1010.9
20260509104540 49 26 0.0 0.0 0.00 0.01 0.00 96 1011.0
20260509103045 49 39 0.0 0.0 0.00 0.01 0.00 96 1010.9
20260509101556 49 55 0.0 0.0 0.00 0.01 0.00 96 1011.0
20260509100136 49 23 0.0 0.0 0.00 0.01 0.00 96 1011.0
20260509094538 48 51 0.0 0.0 0.00 0.01 0.00 95 1011.0
20260509093033 49 37 0.0 0.0 0.00 0.01 0.00 95 1011.2
20260509091532 49 37 0.0 0.0 0.00 0.01 0.00 95 1011.2
20260509090038 49 37 0.0 0.0 0.00 0.01 0.00 95 1011.1
20260509084529 49 37 0.0 0.0 0.00 0.01 0.00 95 1011.2
20260509083038 49 24 0.0 0.0 0.00 0.01 0.00 95 1011.4
20260509081529 49 24 0.0 0.0 0.00 0.01 0.00 95 1011.5
20260509080025 49 16 0.0 0.0 0.00 0.01 0.00 95 1011.6
20260509074524 49 49 0.0 0.0 0.00 0.01 0.00 95 1011.7
20260509073029 50 50 0.0 0.0 0.00 0.01 0.00 94 1011.7
20260509071528 50 85 0.0 0.0 0.00 0.01 0.00 94 1011.7
20260509070019 50 47 0.0 0.0 0.00 0.01 0.00 94 1011.7
20260509064517 50 65 0.0 0.0 0.00 0.01 0.01 94 1011.9
20260509063022 50 13 0.0 0.0 0.00 0.01 0.01 94 1011.9
20260509061520 50 180 0.0 0.0 0.00 0.01 0.01 94 1012.2
20260509060013 51 180 0.0 0.0 0.00 0.01 0.01 94 1012.4
20260509054513 51 180 0.0 0.0 0.00 0.01 0.01 94 1012.5
20260509053016 51 180 0.0 0.0 0.00 0.01 0.01 93 1012.6
20260509051512 51 192 0.0 0.0 0.00 0.01 0.01 93 1012.5
20260509050017 51 184 0.0 0.0 0.00 0.01 0.01 93 1012.4
20260509044510 51 181 0.0 0.0 0.00 0.01 0.01 92 1012.6
20260509043010 51 187 0.0 0.0 0.00 0.01 0.01 92 1012.5
20260509041510 51 264 0.0 0.0 0.00 0.01 0.01 91 1012.4
20260509040023 51 229 0.0 0.0 0.00 0.01 0.01 90 1012.4
20260509034508 52 229 0.0 0.0 0.00 0.01 0.01 89 1012.3
20260509033008 53 229 0.0 0.0 0.00 0.01 0.01 88 1012.3
20260509031607 53 229 0.0 0.0 0.00 0.01 0.01 87 1012.4
20260509030007 54 227 0.0 0.0 0.00 0.01 0.01 84 1012.4
20260509024508 57 210 0.0 0.0 0.00 0.01 0.01 81 1012.4
20260509023008 59 208 0.0 0.0 0.00 0.01 0.01 77 1012.2
20260509021505 61 257 0.0 0.0 0.00 0.01 0.01 76 1012.3
20260509020003 62 267 0.0 0.0 0.00 0.01 0.01 75 1012.4
20260509014502 61 247 0.0 0.0 0.00 0.01 0.01 74 1012.4
20260509013103 62 316 0.0 0.0 0.00 0.01 0.01 72 1012.4
20260509011601 63 304 0.0 0.0 0.00 0.01 0.01 70 1012.5
20260509010058 63 71 0.0 0.0 0.00 0.01 0.01 71 1012.6
20260509004608 64 28 0.0 0.0 0.00 0.01 0.01 69 1012.8
20260509003058 64 248 0.0 0.0 0.00 0.01 0.01 67 1012.7
20260509001555 65 5 0.0 0.0 0.00 0.01 0.01 69 1012.7
20260509000055 65 336 0.0 0.0 0.00 0.01 0.01 66 1012.7
20260508234553 64 315 0.0 0.0 0.00 0.01 0.01 69 1012.8
20260508233051 66 261 0.0 0.0 0.00 0.01 0.01 68 1012.9
20260508231550 65 360 0.0 0.0 0.00 0.01 0.01 68 1013.0
20260508230047 66 254 0.0 0.0 0.00 0.01 0.01 68 1013.2
20260508224606 65 24 0.0 0.0 0.00 0.01 0.01 70 1013.3
20260508223051 66 355 0.0 0.0 0.00 0.01 0.01 71 1013.4
20260508221542 67 318 0.0 0.0 0.00 0.01 0.01 69 1013.4
20260508220049 68 323 0.0 0.0 0.00 0.01 0.01 72 1013.5
20260508214539 67 250 0.0 0.0 0.00 0.01 0.01 73 1013.6
20260508213042 68 333 0.0 0.0 0.00 0.01 0.01 71 1013.6